sat.trackr.live / text

‹ back to catalog

STARLINK-31295

NORAD 59095 · 2024-041X

PAYLOAD ACTIVE UNKNOWN

§ Identity

Operator
Country
US
Launch date
2024-02-29
Launch site
AFETR
Launch vehicle
Mass (kg)
RCS (m²)

Purposes: comms

External: N2YO · Heavens-Above · Gunter

§ Orbital elements

Epoch: 2026-09-20T02:17:32.756928Z

Period
94.27 min
Inclination
43.0020°
Eccentricity
0.0001255
Mean motion
15.27579741 rev/d
Perigee alt
482.2 km
Apogee alt
483.9 km
Semi-major
6,861.2 km
B*
3.2781e-5
RAAN
292.7759°
Arg perigee
260.6901°
Mean anomaly
99.3809°
Rev number
14,400

§ Raw data

STARLINK-312951 59095U 24041X   26263.09551802  .00000640  00000+0  32781-4 0  99922 59095  43.0020 292.7759 0001255 260.6901  99.3809 15.27579741144002

JSON: /api/v1/satellites/59095 · /tle

For live sub-satellite position, see the globe view (requires WebGL).

§ Visibility from observer

Set your observer location to see the next 7 days of passes ≥ 10°. The values pass through the URL so the page stays shareable.

No JS? Fill the form by hand. The geolocation button needs JavaScript.